Regional Weather Roundup
Issued by NWS Upton, NY

Current Version | Previous Version | Text Only | Print | Product List | Glossary On
Versions: 1 2 3 4 5 6 7 8 9 10 11 12 13 14 15 16 17 18 19 20 21 22 23 24 25 26 27 28 29 30 31 32 33 34 35 36 37 38 39 40 41 42 43 44 45 46 47 48 49 50
000 ASUS41 KOKX 291907 RWROKX REGIONAL WEATHER ROUNDUP NATIONAL WEATHER SERVICE NEW YORK NY 300 PM EDT SUN MAR 29 2015 NOTE: "FAIR" INDICATES FEW OR NO CLOUDS BELOW 12,000 FEET WITH NO SIGNIFICANT WEATHER AND/OR OBSTRUCTIONS TO VISIBILITY. NYZ071-072-176-178-NJZ106-104-292000- NEW YORK CITY METRO AREA CITY SKY/WX TMP DP RH WIND PRES REMARKS CENTRAL PARK SUNNY 44 4 19 NW7 30.22F LAGUARDIA APRT SUNNY 42 3 19 NW6 30.21F KENNEDY INTL SUNNY 44 0 16 VRB6G18 30.22F NEWARK/LIBERTY MOSUNNY 45 3 17 N10G21 30.21F BRNX BOT. GARD N/A N/A N/A N/A W14 30.20F TETERBORO SUNNY 43 8 23 VRB7 30.20F $$ NYZ177-179-078>081-292000- LONG ISLAND NEW YORK CITY SKY/WX TMP DP RH WIND PRES REMARKS FARMINGDALE SUNNY 42 6 22 NW8 30.21F ISLIP SUNNY 42 9 25 NW13 30.19F SHIRLEY SUNNY 41 10 28 NW8 30.21F WESTHAMPTON SUNNY 39 9 29 NW14G20 30.21F WCI 31 MONTAUK POINT N/A 38 11 32 W6 30.20F WCI 33 $$ NYZ052-065-067-292000- HUDSON VALLEY CITY SKY/WX TMP DP RH WIND PRES REMARKS WHITE PLAINS SUNNY 40 3 21 NW10 30.18F WCI 33 NEWBURGH SUNNY 41 7 24 CALM 30.18F MONTGOMERY SUNNY 43 5 20 NW8 30.16F POUGHKEEPSIE SUNNY 43 4 19 CALM 30.18F ALBANY MOSUNNY 40 7 25 W15 30.18F WCI 32 $$ NJZ001-105-106-008-010-013-015-019>022-104-292000- NEW JERSEY CITY SKY/WX TMP DP RH WIND PRES REMARKS NEWARK/LIBERTY MOSUNNY 45 3 17 N10G21 30.21F TETERBORO SUNNY 43 8 23 VRB7 30.20F CALDWELL SUNNY 42 4 20 NW12G17 30.21F MORRISTOWN SUNNY 43 7 22 N3G14 30.21F SOMERVILLE SUNNY 45 4 18 NW8G17 30.20F SUSSEX SUNNY 42 9 25 NW8 30.19F ANDOVER N/A 42 6 22 MISG 30.18F TRENTON SUNNY 42 9 25 VRB7 30.22F MILLVILLE SUNNY 43 8 23 NW7G18 30.26F ATLANTIC CITY SUNNY 44 5 20 W9 30.25F WRIGHTSTOWN SUNNY 42 8 25 VRB6 30.22F TOMS RIVER SUNNY 43 3 19 NW12 30.23F BELMAR SUNNY 43 5 21 W8G16 30.22F $$ PAZ047>061-062-071-292000- EASTERN PENNSYLVANIA CITY SKY/WX TMP DP RH WIND PRES REMARKS PHILADELPHIA SUNNY 43 6 21 NW12 30.27F ALLENTOWN SUNNY 42 7 23 VRB5 30.22F SCRANTON SUNNY 41 5 22 N7 30.17F $$ CTZ002-004>006-009-010-012-RIZ004-006-007-MAZ004-011-015-292000- SOUTHERN NEW ENGLAND IN CT CITY SKY/WX TMP DP RH WIND PRES REMARKS BRADLEY INTL SUNNY 44 3 18 W6 30.15F HARTFORD SUNNY 41 2 19 SW7 30.17F DANBURY SUNNY 40 3 21 N13G21 30.19F WCI 32 WTRBRY/OXFORD SUNNY 37 7 28 NW7G16 30.18F WCI 32 BRIDGEPORT SUNNY 43 6 21 N10G20 30.20F MERIDEN SUNNY 41 7 24 W7 30.17F NEW HAVEN SUNNY 43 7 22 N8 30.18F CHESTER FAIR 39 3 22 NW12 30.17F WCI 32 GROTON SUNNY 39 16 39 S10 30.17F WCI 32 WILLIMANTIC SUNNY 39 5 24 MISG 30.16F IN RI CITY SKY/WX TMP DP RH WIND PRES REMARKS PROVIDENCE SUNNY 41 8 25 VRB6 30.16F BLOCK ISLAND SUNNY 37 18 44 W8 30.17F WCI 31 WESTERLY SUNNY 40 13 33 N6 30.17F IN MA CITY SKY/WX TMP DP RH WIND PRES REMARKS BOSTON SUNNY 37 12 35 SE12 30.14F WCI 29 WORCESTER SUNNY 37 2 22 W12 30.10F WCI 29 WESTFIELD SUNNY 43 3 19 W7G17 30.14F PROVINCETOWN SUNNY 36 16 44 NW7 30.17F WCI 30 NANTUCKET SUNNY 38 19 46 N12G20 30.15F WCI 30 $$ ANZ330-335-338-340-345-350-353-355-292000- COASTAL MARINE OBSERVATIONS STATION/POSITION TIME SKY/WX TEMP WIND PRES VSBY WAVE AIR SEA DIR/SP/G HT/PER (UTC) (F) (DEG/KT/KT) (MB) (MI) (FT/S) NY HARB ENTRANCE 1850 36 39 300/ 8/ 10 1023.4 4/10 4S FIRE IS 1803 37 N/A 4/ 9 20S FIRE ISLAND 1750 38 1024.6 5/10 23SW MTP 1850 N/A 5/ 9 HUDSON CANYON NOT AVBL EXECUTION ROCKS NOT AVBL WESTERN LI SOUND NOT AVBL CENTRAL LI SOUND NOT AVBL EASTERN LI SOUND NOT AVBL ROBBINS REEF 1800 38 310/ 6/ 8 1023.0 $$ >>>>>>>>>>>>>>>>>>>>>>>>>>>> KEY <<<<<<<<<<<<<<<<<<<<<<<<<<< > < > SKY/WX - SKY CONDITION/PRESENT WEATHER < > TMP - TEMPERATURE IN FAHRENHEIT < > DP - DEWPOINT IN FAHRENHEIT < > RH - RELATIVE HUMIDITY IN PERCENT < > WIND - DIRECTION AND SPEED IN MPH < > PRES - MEAN SEA LEVEL PRESSURE IN INCHES OF HG < > WCI - WIND CHILL INDEX < > VSB - VISIBILITY IN MILES < > HX - HEAT INDEX < > TC - TEMPERATURE IN CELSIUS < > VRB - VARIABLE WIND DIRECTION < > < >>>>>>>>>>>>>>>>>>>>>>>>>>>> KEY <<<<<<<<<<<<<<<<<<<<<<<<<<<

USA.gov is the U.S. government's official web portal to all federal, state and local government web resources and services.